| time (UTC) | temp F | wind direction | speed knots | gust knots | rain 1hr in | rain 24hr in | rain mn in | humidity % | barometer mb |
| 20260906051534 | 74 | 17 | 1.7 | 7.8 | 0.00 | 0.00 | 0.00 | 87 | 1016.0 |
| 20260906050029 | 75 | 17 | 0.9 | 2.6 | 0.00 | 0.00 | 0.00 | 87 | 1015.8 |
| 20260906044523 | 75 | 27 | 0.9 | 3.5 | 0.00 | 0.00 | 0.00 | 87 | 1015.6 |
| 20260906043019 | 75 | 32 | 0.9 | 3.5 | 0.00 | 0.00 | 0.00 | 86 | 1015.5 |
| 20260906041517 | 75 | 80 | 0.0 | 0.0 | 0.00 | 0.00 | 0.00 | 86 | 1015.3 |
| 20260906040004 | 76 | 61 | 0.0 | 0.0 | 0.00 | 0.00 | 0.00 | 86 | 1015.1 |
| 20260906034458 | 76 | 61 | 0.0 | 2.6 | 0.00 | 0.00 | 0.00 | 85 | 1015.0 |
| 20260906032954 | 76 | 61 | 0.9 | 2.6 | 0.00 | 0.00 | 0.00 | 85 | 1014.8 |
| 20260906031451 | 76 | 25 | 0.9 | 3.5 | 0.00 | 0.00 | 0.00 | 85 | 1014.9 |
| 20260906025947 | 77 | 18 | 0.9 | 3.5 | 0.00 | 0.00 | 0.00 | 84 | 1014.9 |
| 20260906024442 | 77 | 34 | 1.7 | 7.0 | 0.00 | 0.00 | 0.00 | 84 | 1014.8 |
| 20260906022939 | 78 | 54 | 1.7 | 5.2 | 0.00 | 0.00 | 0.00 | 84 | 1014.6 |
| 20260906021439 | 78 | 44 | 1.7 | 6.1 | 0.00 | 0.00 | 0.00 | 83 | 1014.5 |
| 20260906015935 | 79 | 49 | 2.6 | 10.4 | 0.00 | 0.00 | 0.00 | 83 | 1014.0 |
| 20260906014435 | 79 | 69 | 2.6 | 7.0 | 0.00 | 0.00 | 0.00 | 83 | 1014.2 |
| 20260906012935 | 80 | 67 | 2.6 | 5.2 | 0.00 | 0.00 | 0.00 | 82 | 1014.1 |
| 20260906011435 | 81 | 54 | 2.6 | 7.0 | 0.00 | 0.00 | 0.00 | 81 | 1014.0 |
| 20260906005935 | 82 | 24 | 2.6 | 9.6 | 0.00 | 0.00 | 0.00 | 80 | 1013.7 |
| 20260906004433 | 83 | 44 | 3.5 | 11.3 | 0.00 | 0.00 | 0.00 | 78 | 1013.7 |
| 20260906002927 | 84 | 39 | 3.5 | 8.7 | 0.00 | 0.00 | 0.00 | 78 | 1013.5 |
| 20260906001420 | 85 | 10 | 2.6 | 5.2 | 0.00 | 0.00 | 0.00 | 77 | 1013.5 |
| 20260905235918 | 86 | 9 | 3.5 | 8.7 | 0.00 | 0.00 | 0.00 | 75 | 1013.3 |
| 20260905234417 | 87 | 21 | 3.5 | 7.8 | 0.00 | 0.00 | 0.00 | 75 | 1013.2 |
| 20260905232913 | 88 | 32 | 4.3 | 9.6 | 0.00 | 0.00 | 0.00 | 73 | 1013.0 |
| 20260905231410 | 89 | 13 | 3.5 | 8.7 | 0.00 | 0.00 | 0.00 | 71 | 1013.0 |
| 20260905225908 | 90 | 22 | 5.2 | 10.4 | 0.00 | 0.00 | 0.00 | 69 | 1012.8 |
| 20260905224406 | 91 | 21 | 2.6 | 7.8 | 0.00 | 0.00 | 0.00 | 68 | 1012.9 |
| 20260905222856 | 91 | 38 | 2.6 | 7.0 | 0.00 | 0.00 | 0.00 | 67 | 1012.8 |
| 20260905221356 | 92 | 17 | 1.7 | 5.2 | 0.00 | 0.00 | 0.00 | 65 | 1012.9 |
| 20260905215848 | 94 | 26 | 1.7 | 4.3 | 0.00 | 0.00 | 0.00 | 64 | 1012.8 |
| 20260905214350 | 93 | 5 | 2.6 | 7.8 | 0.00 | 0.00 | 0.00 | 65 | 1012.9 |
| 20260905212847 | 94 | 327 | 0.9 | 3.5 | 0.00 | 0.00 | 0.00 | 64 | 1012.8 |
| 20260905211346 | 93 | 42 | 1.7 | 5.2 | 0.00 | 0.00 | 0.00 | 65 | 1012.9 |
| 20260905205844 | 92 | 25 | 1.7 | 7.8 | 0.00 | 0.00 | 0.00 | 66 | 1013.1 |
| 20260905204342 | 92 | 348 | 0.9 | 4.3 | 0.00 | 0.00 | 0.00 | 68 | 1013.2 |
| 20260905202840 | 91 | 22 | 0.9 | 3.5 | 0.00 | 0.00 | 0.00 | 67 | 1013.1 |
| 20260905201331 | 92 | 337 | 1.7 | 5.2 | 0.00 | 0.00 | 0.00 | 67 | 1013.3 |
| 20260905195828 | 92 | 26 | 1.7 | 6.1 | 0.00 | 0.00 | 0.00 | 68 | 1013.4 |
| 20260905194328 | 92 | 346 | 2.6 | 7.0 | 0.00 | 0.00 | 0.00 | 69 | 1013.5 |
| 20260905192827 | 92 | 36 | 1.7 | 5.2 | 0.00 | 0.00 | 0.00 | 67 | 1013.8 |
| 20260905191324 | 92 | 88 | 1.7 | 4.3 | 0.00 | 0.00 | 0.00 | 67 | 1013.7 |
| 20260905185814 | 92 | 5 | 1.7 | 6.1 | 0.00 | 0.00 | 0.00 | 67 | 1013.7 |
| 20260905184311 | 93 | 29 | 2.6 | 7.0 | 0.00 | 0.00 | 0.00 | 65 | 1013.7 |
| 20260905182813 | 93 | 5 | 1.7 | 8.7 | 0.00 | 0.00 | 0.00 | 67 | 1013.7 |
| 20260905181303 | 92 | 336 | 1.7 | 7.0 | 0.00 | 0.00 | 0.00 | 66 | 1013.9 |
| 20260905175802 | 92 | 334 | 1.7 | 7.0 | 0.00 | 0.00 | 0.00 | 65 | 1014.0 |
| 20260905174258 | 92 | 288 | 1.7 | 8.7 | 0.00 | 0.00 | 0.00 | 69 | 1014.2 |
| 20260905172756 | 91 | 21 | 1.7 | 7.0 | 0.00 | 0.00 | 0.00 | 69 | 1014.3 |
| 20260905171251 | 90 | 45 | 1.7 | 7.0 | 0.00 | 0.00 | 0.00 | 70 | 1014.4 |
| 20260905165751 | 90 | 79 | 1.7 | 7.0 | 0.00 | 0.00 | 0.00 | 70 | 1014.4 |
| 20260905164250 | 90 | 63 | 3.5 | 7.0 | 0.00 | 0.00 | 0.00 | 71 | 1014.5 |
| 20260905162748 | 89 | 30 | 2.6 | 7.0 | 0.00 | 0.00 | 0.00 | 71 | 1014.4 |
| 20260905161246 | 89 | 18 | 1.7 | 6.1 | 0.00 | 0.00 | 0.00 | 72 | 1014.4 |
| 20260905155746 | 89 | 18 | 2.6 | 7.8 | 0.00 | 0.00 | 0.00 | 71 | 1014.4 |
| 20260905154245 | 89 | 355 | 1.7 | 7.0 | 0.00 | 0.00 | 0.00 | 73 | 1014.4 |
| 20260905152746 | 88 | 305 | 2.6 | 6.1 | 0.00 | 0.00 | 0.00 | 72 | 1014.4 |
| 20260905151237 | 87 | 5 | 0.9 | 3.5 | 0.00 | 0.00 | 0.00 | 73 | 1014.2 |
| 20260905145724 | 86 | 344 | 0.9 | 2.6 | 0.00 | 0.00 | 0.00 | 73 | 1014.0 |
| 20260905144224 | 85 | 0 | 0.9 | 3.5 | 0.00 | 0.00 | 0.00 | 76 | 1013.9 |
| 20260905142722 | 84 | 340 | 0.9 | 3.5 | 0.00 | 0.00 | 0.00 | 77 | 1013.9 |
| 20260905141221 | 83 | 355 | 0.9 | 2.6 | 0.00 | 0.00 | 0.00 | 80 | 1013.8 |
| 20260905135719 | 82 | 0 | 0.0 | 1.7 | 0.00 | 0.00 | 0.00 | 80 | 1013.4 |
| 20260905134212 | 81 | 244 | 0.0 | 2.6 | 0.00 | 0.00 | 0.00 | 81 | 1013.2 |
| 20260905132713 | 80 | 225 | 0.0 | 4.3 | 0.00 | 0.00 | 0.00 | 82 | 1013.2 |
| 20260905131208 | 79 | 184 | 0.0 | 1.7 | 0.00 | 0.00 | 0.00 | 83 | 1013.3 |
| 20260905125649 | 78 | 184 | 0.0 | 1.7 | 0.00 | 0.00 | 0.00 | 85 | 1013.3 |
| 20260905124152 | 77 | 192 | 0.0 | 0.9 | 0.00 | 0.00 | 0.00 | 87 | 1013.5 |
| 20260905122644 | 76 | 192 | 0.0 | 0.9 | 0.00 | 0.00 | 0.00 | 87 | 1013.3 |
| 20260905121136 | 76 | 192 | 0.0 | 0.9 | 0.00 | 0.00 | 0.00 | 87 | 1013.0 |
| 20260905115635 | 76 | 188 | 0.0 | 0.0 | 0.00 | 0.00 | 0.00 | 87 | 1013.0 |
| 20260905114125 | 76 | 188 | 0.0 | 0.0 | 0.00 | 0.00 | 0.00 | 87 | 1012.9 |
| 20260905112620 | 76 | 188 | 0.0 | 1.7 | 0.00 | 0.00 | 0.00 | 86 | 1012.7 |
| 20260905111121 | 77 | 188 | 0.0 | 0.0 | 0.00 | 0.00 | 0.00 | 87 | 1012.5 |
| 20260905105617 | 77 | 188 | 0.0 | 1.7 | 0.00 | 0.00 | 0.00 | 87 | 1012.4 |
| 20260905104114 | 77 | 188 | 0.0 | 0.9 | 0.00 | 0.00 | 0.00 | 87 | 1012.5 |
| 20260905102612 | 77 | 188 | 0.0 | 0.0 | 0.00 | 0.00 | 0.00 | 86 | 1012.6 |
| 20260905101106 | 77 | 188 | 0.0 | 0.9 | 0.00 | 0.00 | 0.00 | 86 | 1012.7 |
| 20260905095603 | 77 | 188 | 0.0 | 1.7 | 0.00 | 0.00 | 0.00 | 87 | 1012.7 |
| 20260905094057 | 77 | 188 | 0.0 | 0.0 | 0.00 | 0.00 | 0.00 | 86 | 1012.7 |
| 20260905092548 | 78 | 188 | 0.0 | 0.0 | 0.00 | 0.00 | 0.00 | 86 | 1012.6 |
| 20260905091036 | 78 | 188 | 0.0 | 0.0 | 0.00 | 0.00 | 0.00 | 85 | 1012.6 |
| 20260905085523 | 78 | 188 | 0.0 | 0.0 | 0.00 | 0.00 | 0.00 | 85 | 1012.6 |
| 20260905084023 | 79 | 188 | 0.0 | 0.0 | 0.00 | 0.00 | 0.00 | 84 | 1012.8 |
| 20260905082525 | 79 | 188 | 0.0 | 0.9 | 0.00 | 0.00 | 0.00 | 84 | 1012.9 |
| 20260905081004 | 79 | 188 | 0.0 | 1.7 | 0.00 | 0.00 | 0.00 | 84 | 1012.9 |
| 20260905075505 | 79 | 188 | 0.0 | 1.7 | 0.00 | 0.00 | 0.00 | 84 | 1013.0 |
| 20260905073958 | 79 | 188 | 0.0 | 0.0 | 0.00 | 0.00 | 0.00 | 84 | 1012.9 |
| 20260905072451 | 80 | 188 | 0.0 | 0.0 | 0.00 | 0.00 | 0.00 | 84 | 1013.0 |
| 20260905070949 | 80 | 188 | 0.0 | 0.9 | 0.00 | 0.00 | 0.00 | 85 | 1013.0 |
| 20260905065436 | 80 | 188 | 0.0 | 1.7 | 0.00 | 0.00 | 0.00 | 85 | 1012.9 |
| 20260905063935 | 80 | 188 | 0.0 | 0.0 | 0.00 | 0.00 | 0.00 | 85 | 1013.2 |
| 20260905062432 | 80 | 188 | 0.0 | 0.9 | 0.00 | 0.00 | 0.00 | 85 | 1013.2 |
| 20260905060932 | 80 | 188 | 0.0 | 0.0 | 0.00 | 0.00 | 0.00 | 85 | 1013.0 |
| 20260905055423 | 80 | 188 | 0.0 | 0.9 | 0.00 | 0.00 | 0.00 | 85 | 1013.1 |
| 20260905053913 | 80 | 188 | 0.0 | 0.0 | 0.00 | 0.00 | 0.00 | 85 | 1013.1 |